Location: Grossmotten
(48.5500°N, 15.3833°E)
Time: 23:54:46
(UTC+00:00)

Cosmos 1892 - Pass Details

Date: 15 November 2019
Orbit: 505 x 525 km, 82.5° (Epoch: 14 December)

Event Time Altitude Azimuth Distance (km) Brightness Sun altitude
Rises 04:26:48 0° 194° (SSW) 2,612 6.2 -16.3°
Reaches altitude 10° 04:28:56 10° 196° (SSW) 1,728 5.3 -16.0°
Maximum altitude 04:32:42 70° 281° (W) 548 2.5 -15.4°
Drops below altitude 10° 04:36:29 10° 5° (N) 1,734 5.3 -14.7°
Sets 04:38:38 0° 8° (N) 2,623 6.3 -14.4°
